TimeAKDT,TemperatureF,Dew PointF,Humidity,Sea Level PressureIn,VisibilityMPH,Wind Direction,Wind SpeedMPH,Gust SpeedMPH,PrecipitationIn,Events,Conditions,WindDirDegrees,DateUTC
12:53 AM,46.0,30.9,56,29.99,10.0,NNE,17.3,27.6,N/A,,Overcast,20,2012-10-11 08:53:00
1:53 AM,46.0,30.0,54,29.99,10.0,NNE,12.7,27.6,N/A,,Overcast,20,2012-10-11 09:53:00
2:53 AM,46.0,28.0,50,30.00,10.0,NNE,9.2,20.7,N/A,,Overcast,20,2012-10-11 10:53:00
3:53 AM,45.0,27.0,49,30.00,10.0,NNE,12.7,24.2,N/A,,Overcast,20,2012-10-11 11:53:00
4:53 AM,45.0,27.0,49,29.99,10.0,NNE,16.1,-,N/A,,Overcast,20,2012-10-11 12:53:00
5:53 AM,45.0,26.1,48,29.98,10.0,NNE,11.5,-,N/A,,Overcast,20,2012-10-11 13:53:00
6:53 AM,44.1,26.1,49,29.98,10.0,North,12.7,19.6,N/A,,Overcast,10,2012-10-11 14:53:00
7:53 AM,43.0,24.1,47,29.99,10.0,NE,13.8,19.6,N/A,,Overcast,40,2012-10-11 15:53:00
8:53 AM,43.0,24.1,47,29.99,10.0,NNE,13.8,20.7,N/A,,Overcast,30,2012-10-11 16:53:00
9:53 AM,43.0,24.1,47,29.98,-9999.0,NNE,11.5,18.4,N/A,,Overcast,30,2012-10-11 17:53:00
10:53 AM,43.0,23.0,45,29.97,-9999.0,NNE,10.4,-,N/A,,Overcast,20,2012-10-11 18:53:00
12:53 PM,45.0,21.9,40,29.92,-9999.0,NE,18.4,24.2,N/A,,Scattered Clouds,40,2012-10-11 20:53:00
1:53 PM,46.0,21.9,39,29.90,10.0,NNE,13.8,23.0,N/A,,Scattered Clouds,30,2012-10-11 21:53:00
2:53 PM,45.0,21.0,39,29.88,10.0,NNE,13.8,20.7,N/A,,Partly Cloudy,30,2012-10-11 22:53:00
3:53 PM,44.1,19.9,38,29.86,10.0,NNE,11.5,23.0,N/A,,Scattered Clouds,20,2012-10-11 23:53:00
4:53 PM,43.0,19.9,40,29.83,10.0,NNE,11.5,-,N/A,,Mostly Cloudy,20,2012-10-12 00:53:00
5:53 PM,42.1,19.0,40,29.81,10.0,NNE,9.2,19.6,N/A,,Mostly Cloudy,20,2012-10-12 01:53:00
6:53 PM,41.0,19.0,41,29.80,10.0,NNE,10.4,19.6,N/A,,Overcast,20,2012-10-12 02:53:00
7:53 PM,41.0,19.0,41,29.77,10.0,NNE,9.2,-,N/A,,Overcast,20,2012-10-12 03:53:00
8:53 PM,41.0,19.0,41,29.75,10.0,North,11.5,18.4,N/A,,Overcast,10,2012-10-12 04:53:00
9:53 PM,41.0,19.0,41,29.73,10.0,NNE,9.2,-,N/A,,Overcast,20,2012-10-12 05:53:00
10:53 PM,39.9,19.9,45,29.70,10.0,NNE,9.2,-,N/A,,Overcast,20,2012-10-12 06:53:00
11:53 PM,39.9,19.9,45,29.67,10.0,NNE,10.4,-,N/A,,Overcast,20,2012-10-12 07:53:00